Home   Weather   Traiskirchen   Past weeks

Flag for Austria Past Weather in Traiskirchen, Lower Austria, Austria — Yesterday and Last 2 Weeks

Now
48 °F

Passing clouds.


Feels Like: N/A
Forecast: 45 / 72 °F
Wind: N/A

Location: Wien / Schwechat-Flughafen

Current Time: Sep 27, 2016 at 5:38:29 AM

Latest Report: Sep 27, 2016 at 4:00 AM


Visibility: 7 mi

Pressure: 30.23 "Hg

Humidity: 92%

Dew Point: 46 °F

Location of TraiskirchenLocation

Past Weather in Traiskirchen — Graph

°F

Traiskirchen Temperature Yesterday

Maximum temperature yesterday: 68 °F (at 4:00 PM)
Minimum temperature yesterday: 48 °F (at 6:00 AM)
Average temperature yesterday: 56 °F

High & Low Weather Summary for the Past Weeks

 TemperatureHumidityPressure
High85 °F (Sep 12, 4:00 PM)97% (Sep 25, 7:00 AM)30.36 "Hg (Sep 25, 7:00 AM)
Low42 °F (Sep 23, 7:00 AM)36% (Sep 12, 5:00 PM)29.76 "Hg (Sep 17, 6:00 AM)
Average63 °F70%30.05 "Hg
* Reported Sep 12 4:00 AM — Sep 27 4:00 AM, Traiskirchen, Weather by CustomWeather, © 2016

Note: Actual official high and low records may vary slightly from our data, if they occured in-between our weather recording intervals... More about our weather records

Advertising

Traiskirchen Weather History for the Previous 24 Hours

Scroll right to see more
 ConditionsComfort  
Time TempWeatherWind HumidityBarometerVisibility
4:00 AM
Tue, Sep 27
48 °FPassing clouds.N/A92%30.23 "Hg7 mi
3:00 AM52 °FPassing clouds.N/A85%30.23 "Hg9 mi
2:00 AM52 °FPassing clouds.N/A83%30.22 "Hg9 mi
1:00 AM54 °FPassing clouds.N/A80%30.22 "Hg11 mi
12:00 AM55 °FPassing clouds.N/A77%30.21 "Hg13 mi
11:00 PM
Mon, Sep 26
55 °FPassing clouds.N/A76%30.21 "Hg19 mi
10:00 PM54 °FPassing clouds.3 mph78%30.21 "Hg16 mi
9:00 PM58 °FPassing clouds.N/A71%30.20 "Hg19 mi
8:00 PM58 °FPassing clouds.N/A74%30.19 "Hg18 mi
7:00 PM63 °FPassing clouds.N/A60%30.17 "Hg6 mi
4:00 PM68 °FScattered clouds.N/A54%30.16 "Hg11 mi
3:00 PM68 °FScattered clouds.N/A57%N/A10 mi
2:00 PM67 °FPartly sunny.N/A59%30.16 "Hg11 mi
1:00 PM65 °FPartly sunny.N/A61%30.18 "Hg9 mi
12:00 PM62 °FPartly sunny.N/A68%30.19 "Hg10 mi
11:00 AM59 °FOvercast.N/A70%30.20 "Hg7 mi
10:00 AM56 °FOvercast.N/A76%30.21 "Hg7 mi
9:00 AM54 °FOvercast.N/A83%30.20 "Hg4 mi
8:00 AM49 °FOvercast.N/A94%30.20 "Hg2 mi
7:00 AM49 °FOvercast.N/A91%30.18 "Hg6 mi
6:00 AM48 °FPassing clouds.N/A92%30.17 "Hg5 mi
5:00 AM50 °FOvercast.N/A90%30.17 "Hg9 mi
Weather by CustomWeather, © 2016

See weather overviewHow to use our weather pages